Meridian, MS

10:41 AM CDT on August 28, 2016 (GMT -0500)
Key

Weather History for KMEI - March, 2013

Change the Weather History Date:

Monday, March 25, 2013

  Actual Average Record
Temperature  
Mean Temperature 42 °F 58 °F  
Max Temperature 51 °F 71 °F 88 °F (1907)
Min Temperature 32 °F 44 °F 24 °F (1966)
Degree Days  
Heating Degree Days 23 8  
Month to date heating degree days 357 263  
Since 1 July heating degree days 2244 2360  
Cooling Degree Days 0 1  
Month to date cooling degree days 3 17  
Year to date cooling degree days 19 24  
Moisture  
Dew Point 24 °F    
Average Humidity 55    
Maximum Humidity 82    
Minimum Humidity 27    
Precipitation  
Precipitation 0.00 in 0.17 in 2.27 in (1916)
Month to date precipitation 3.35 4.40  
Year to date precipitation 22.18 15.13  
Sea Level Pressure  
Sea Level Pressure 30.11 in    
Wind  
Wind Speed 11 mph (WNW)    
Max Wind Speed 29 mph    
Max Gust Speed 38 mph    
Visibility 10 miles    
Events      
T = Trace of Precipitation, MM = Missing Value Source: NWS Daily Summary

Daily Weather History Graph

Daily Weather History Graph

Search for Another Location

Airport or City:

Trip Planner

Search our weather history database for the weather conditions in past years. The results will help you decide how hot, cold, wet, or windy it might be!

Date:

Astronomy

Mar. 25, 2013 Rise Set
Actual Time 6:51 AM CDT 7:10 PM CDT
Civil Twilight 6:27 AM CDT 7:34 PM CDT
Nautical Twilight 5:58 AM CDT 8:03 PM CDT
Astronomical Twilight 5:29 AM CDT 8:32 PM CDT
Moon 5:44 PM CDT (3/25) 5:30 AM CDT (3/25)
Length of Visible Light 13h 07m
Length of Day
12h 18m
Waxing Gibbous, 96% of the Moon is Illuminated
Mar 25
Waxing Gibbous
Mar 27
Full
Apr 2
Last Quarter
Apr 10
New
Apr 18
First Quarter

Hourly Weather History & Observations

Time (CDT) Temp. Windchill Dew Point Humidity Pressure Visibility Wind Dir Wind Speed Gust Speed Precip Events Conditions
12:58 AM 39.9 °F 31.1 °F 26.1 °F 58% 29.98 in 10.0 mi NNW 17.3 mph 26.5 mph N/A   Mostly Cloudy
1:58 AM 37.9 °F 30.5 °F 27.0 °F 65% 30.02 in 10.0 mi NW 11.5 mph 19.6 mph N/A   Mostly Cloudy
2:58 AM 36.0 °F 31.1 °F 27.0 °F 70% 30.03 in 10.0 mi WNW 5.8 mph - N/A   Clear
3:58 AM 34.0 °F 28.8 °F 27.0 °F 75% 30.02 in 10.0 mi WNW 5.8 mph - N/A   Clear
4:58 AM 33.1 °F 27.7 °F 27.0 °F 78% 30.02 in 10.0 mi WNW 5.8 mph - N/A   Clear
5:58 AM 33.1 °F 27.7 °F 28.0 °F 82% 30.04 in 10.0 mi West 5.8 mph - N/A   Mostly Cloudy
6:58 AM 33.1 °F 27.7 °F 27.0 °F 78% 30.07 in 10.0 mi WNW 5.8 mph - N/A   Clear
7:58 AM 34.0 °F 27.2 °F 28.0 °F 79% 30.11 in 10.0 mi WNW 8.1 mph - N/A   Clear
8:58 AM 37.0 °F 29.8 °F 28.0 °F 70% 30.13 in 10.0 mi WNW 10.4 mph 18.4 mph N/A   Scattered Clouds
9:58 AM 39.9 °F 32.1 °F 26.1 °F 58% 30.14 in 10.0 mi West 13.8 mph 21.9 mph N/A   Partly Cloudy
10:58 AM 43.0 °F 35.4 °F 24.1 °F 47% 30.14 in 10.0 mi NW 16.1 mph 23.0 mph N/A   Clear
11:58 AM 45.0 °F 37.6 °F 21.9 °F 40% 30.13 in 10.0 mi West 17.3 mph 26.5 mph N/A   Clear
12:58 PM 48.0 °F - 19.9 °F 33% 30.12 in 10.0 mi WNW 21.9 mph 33.4 mph N/A   Clear
1:58 PM 50.0 °F - 19.0 °F 29% 30.10 in 10.0 mi WNW 18.4 mph 26.5 mph N/A   Clear
2:58 PM 50.0 °F - 17.1 °F 27% 30.10 in 10.0 mi West 21.9 mph 34.5 mph N/A   Clear
3:58 PM 50.0 °F - 19.0 °F 29% 30.10 in 10.0 mi WNW 24.2 mph 36.8 mph N/A   Clear
4:58 PM 48.9 °F - 21.0 °F 33% 30.11 in 10.0 mi NW 18.4 mph 24.2 mph N/A   Partly Cloudy
5:58 PM 46.9 °F - 21.9 °F 37% 30.13 in 10.0 mi NW 15.0 mph 28.8 mph N/A   Clear
6:58 PM 45.0 °F 38.9 °F 21.9 °F 40% 30.15 in 10.0 mi WNW 12.7 mph 19.6 mph N/A   Clear
7:58 PM 42.1 °F 37.7 °F 24.1 °F 49% 30.17 in 10.0 mi NW 6.9 mph - N/A   Clear
8:58 PM 39.9 °F 35.8 °F 26.1 °F 58% 30.21 in 10.0 mi NNW 5.8 mph - N/A   Clear
9:58 PM 37.9 °F 33.5 °F 23.0 °F 55% 30.23 in 10.0 mi NW 5.8 mph - N/A   Clear
10:58 PM 36.0 °F - 25.0 °F 64% 30.25 in 10.0 mi Calm Calm - N/A   Clear
11:58 PM 35.1 °F - 24.1 °F 64% 30.26 in 10.0 mi Calm Calm - N/A   Clear